Weather History for Big Piney, WY

Change the Weather History Date:

Tuesday, November 13, 2012

  Actual Average Record
Temperature  
Mean Temperature 26 °F 25 °F  
Max Temperature 38 °F 39 °F 63 °F (1999)
Min Temperature 13 °F 11 °F -16 °F (1978)
Degree Days  
Heating Degree Days 39 40  
Month to date heating degree days 422 476  
Since 1 July heating degree days 1552 2056  
Cooling Degree Days 0 0  
Month to date cooling degree days 0 0  
Year to date cooling degree days 67 35  
Moisture  
Dew Point 18 °F    
Average Humidity 68    
Maximum Humidity 88    
Minimum Humidity 48    
Precipitation  
Precipitation 0.00 in 0.01 in 0.28 in (1980)
Month to date precipitation 0.04 0.10  
Year to date precipitation 2.54 6.07  
Sea Level Pressure  
Sea Level Pressure 30.37 in    
Wind  
Wind Speed 3 mph (SSE)    
Max Wind Speed 7 mph    
Max Gust Speed 10 mph    
Visibility 10 miles    
Events      
T = Trace of Precipitation, MM = Missing Value Source: NWS Daily Summary

Daily Weather History Graph

Daily Weather History Graph

Search for Another Location

Airport:

Trip Planner

Search our weather history database for the weather conditions in past years. The results will help you decide how hot, cold, wet, or windy it might be!

Date:

Astronomy

Nov. 13, 2012 Rise Set
Actual Time 7:09 AM MST 4:59 PM MST
Civil Twilight 6:39 AM MST 5:29 PM MST
Nautical Twilight 6:05 AM MST 6:03 PM MST
Astronomical Twilight 5:32 AM MST 6:36 PM MST
Moon 6:52 AM MST (11/13) 4:54 PM MST (11/13)
Length of Visible Light 10h 49m
Length of Day
9h 49m
Waning Crescent, 0% of the Moon is Illuminated
Nov 13
Waning Crescent
Nov 13
New
Nov 20
First Quarter
Nov 28
Full
Dec 6
Last Quarter

Hourly Weather History & Observations

Time (MST) Temp. Windchill Dew Point Humidity Pressure Visibility Wind Dir Wind Speed Gust Speed Precip Events Conditions
12:53 AM 17.1 °F 11.7 °F 12.9 °F 84% 30.42 in 10.0 mi North 3.5 mph - N/A   Scattered Clouds
1:53 AM 18.0 °F 9.8 °F 14.0 °F 84% 30.41 in 10.0 mi NNW 5.8 mph - N/A   Mostly Cloudy
2:53 AM 15.1 °F - 10.9 °F 84% 30.43 in 10.0 mi Calm Calm - N/A   Clear
3:53 AM 17.1 °F - 12.9 °F 84% 30.40 in 10.0 mi Calm Calm - N/A   Overcast
4:53 AM 15.1 °F - 10.0 °F 80% 30.43 in 10.0 mi Calm Calm - N/A   Mostly Cloudy
5:53 AM 16.0 °F - 12.0 °F 84% 30.42 in 10.0 mi Calm Calm - N/A   Overcast
6:53 AM 16.0 °F 10.4 °F 12.0 °F 84% 30.45 in 10.0 mi West 3.5 mph - N/A   Overcast
7:53 AM 19.9 °F 13.4 °F 16.0 °F 85% 30.44 in 10.0 mi NW 4.6 mph - N/A   Overcast
8:19 AM 21.2 °F 16.4 °F 17.6 °F 86% 30.34 in 10.0 mi WNW 3.5 mph - N/A   Overcast
8:53 AM 24.1 °F - 18.0 °F 77% 30.42 in 10.0 mi Calm Calm - N/A   Scattered Clouds
9:53 AM 28.0 °F 24.2 °F 18.0 °F 66% 30.40 in 10.0 mi Variable 3.5 mph - N/A   Clear
10:53 AM 30.9 °F 27.5 °F 19.0 °F 61% 30.40 in 10.0 mi South 3.5 mph - N/A   Clear
11:53 AM 33.1 °F 30.0 °F 19.9 °F 59% 30.35 in 10.0 mi SE 3.5 mph - N/A   Clear
12:53 PM 35.1 °F 29.3 °F 19.9 °F 54% 30.34 in 10.0 mi South 6.9 mph - N/A   Partly Cloudy
1:53 PM 36.0 °F - 19.9 °F 52% 30.32 in 10.0 mi Calm Calm - N/A   Mostly Cloudy
2:53 PM 37.0 °F 34.5 °F 19.9 °F 50% 30.32 in 10.0 mi ESE 3.5 mph - N/A   Overcast
3:53 PM 37.0 °F - 21.0 °F 52% 30.32 in 10.0 mi Calm Calm - N/A   Overcast
4:53 PM 34.0 °F 29.8 °F 21.0 °F 59% 30.33 in 10.0 mi SE 4.6 mph - N/A   Scattered Clouds
5:53 PM 30.0 °F 25.2 °F 23.0 °F 75% 30.37 in 10.0 mi SSE 4.6 mph - N/A   Overcast
6:53 PM 27.0 °F 20.5 °F 21.9 °F 81% 30.37 in 10.0 mi SSE 5.8 mph - N/A   Clear
7:53 PM 26.1 °F 19.4 °F 21.0 °F 81% 30.36 in 10.0 mi South 5.8 mph - N/A   Clear
8:53 PM 21.0 °F - 18.0 °F 88% 30.36 in 10.0 mi Calm Calm - N/A   Mostly Cloudy
9:53 PM 24.1 °F 17.0 °F 19.9 °F 84% 30.32 in 10.0 mi SSE 5.8 mph - N/A   Overcast
10:53 PM 23.0 °F 17.0 °F 19.9 °F 88% 30.30 in 10.0 mi East 4.6 mph - N/A   Mostly Cloudy
11:53 PM 23.0 °F 15.8 °F 19.9 °F 88% 30.28 in 10.0 mi ENE 5.8 mph - N/A   Mostly Cloudy